Ondangwa Airport

Jump to: basic info | weather | frequencies | runways | comments

Related pages: nearby airports | nearby navaids | notams | map

Basic information (top)

Codes: OND FYOA
Location: lon -17.878201, lat 15.952600, elev 3,599 ft / 1,097 m msl
Status: medium_airport
Scheduled airline service: yes
Links: Wikipedia Mobile

Weather (top)

Current conditions (rec'd 2014/10/30 12:00Z):

FYOA 301200Z 03003KT 9999 SCT040CB FEW100 36/08 Q1012

Airport forecast (rec'd 2014/08/21 06:44Z):

TAF FYGF 210500Z 2106/2115 26005KT CAVOK= TAF FYOA 210500Z 2106/2115 19005KT CAVOK

Frequencies (top)

Verify before use: may be inaccurate or out of date.

APP: 125.6 MHz (APP)
TWR: 119.7 MHz (TWR)

Runways (top)

08/26: 9,800 x 98 ft (2,987 x 30 m) — paved — lighted

16/34: 4,423 x 98 ft (1,348 x 30 m) — gravel — not lighted

Latest comments (top)

No comments yet for Ondangwa Airport

More... (top)

See also NOTAMs and nearby airports and navaids, or visit the Ondangwa Airport page at the main OurAirports website..